Location: Drignac
(45.1667°N, 2.0333°E)
Time: 08:45:46
(UTC+00:00)

Cosmos 2074 Rocket - Pass Details

Date: 29 March 2020
Orbit: 967 x 986 km, 82.9° (Epoch: 01 June)

Event Time Altitude Azimuth Distance (km) Brightness Sun altitude
Rises 20:14:53 0° 352° (N) 3,690 7.5 -20.6°
Reaches altitude 10° 20:17:24 10° 354° (N) 2,741 6.8 -21.0°
Maximum altitude 20:23:42 78° 81° (E) 1,008 3.9 -22.0°
Enters shadow 20:26:39 34° 163° (SSE) 1,561 4.7 -22.4°
